Change the Weather History Date:

Thursday, January 17, 2013

  Actual Average Record
Temperature  
Mean Temperature 22 °F -  
Max Temperature 35 °F 27 °F 48 °F (1959)
Min Temperature 8 °F 3 °F -17 °F (1963)
Degree Days  
Heating Degree Days 42    
Moisture  
Dew Point 13 °F    
Average Humidity 70    
Maximum Humidity 100    
Minimum Humidity 35    
Precipitation  
Precipitation 0.10 in - - ()
Sea Level Pressure  
Sea Level Pressure 29.87 in    
Wind  
Wind Speed 6 mph (West)    
Max Wind Speed 18 mph    
Max Gust Speed 28 mph    
Visibility 9 miles    
Events      
Averages and records for this station are not official NWS values.
T = Trace of Precipitation, MM = Missing Value Source: NWS Daily Summary

Daily Weather History Graph

Daily Weather History Graph

Search for Another Location

Airport or City:

Trip Planner

Search our weather history database for the weather conditions in past years. The results will help you decide how hot, cold, wet, or windy it might be!

Date:

Astronomy

Jan. 17, 2013 Rise Set
Actual Time 7:10 AM EST 4:27 PM EST
Civil Twilight 6:38 AM EST 4:59 PM EST
Nautical Twilight 6:02 AM EST 5:35 PM EST
Astronomical Twilight 5:27 AM EST 6:10 PM EST
Moon 9:58 AM EST (1/17) 11:34 PM EST (1/17)
Length of Visible Light 10h 21m
Length of Day
9h 17m
Waxing Crescent, 37% of the Moon is Illuminated
Jan 17
Waxing Crescent
Jan 18
First Quarter
Jan 26
Full
Feb 3
Last Quarter
Feb 10
New

Hourly Weather History & Observations

Time (EST) Temp. Windchill Dew Point Humidity Pressure Visibility Wind Dir Wind Speed Gust Speed Precip Events Conditions
12:15 AM 26.6 °F - 26.6 °F 100% 29.72 in 10.0 mi Calm Calm - N/A   Overcast
12:35 AM 26.6 °F - 26.6 °F 100% 29.71 in 10.0 mi Calm Calm - 0.01 in   Overcast
12:55 AM 26.6 °F - 26.6 °F 100% 29.71 in 10.0 mi Calm Calm - 0.02 in   Overcast
1:15 AM 26.6 °F 22.6 °F 26.6 °F 100% 29.70 in 10.0 mi SSW 3.5 mph - 0.01 in   Overcast
1:35 AM 26.6 °F 21.2 °F 26.6 °F 100% 29.71 in 10.0 mi SW 4.6 mph - 0.01 in   Overcast
1:55 AM 24.8 °F 16.9 °F 24.8 °F 100% 29.72 in 10.0 mi SW 6.9 mph - 0.01 in   Scattered Clouds
2:15 AM 24.8 °F 17.9 °F 23.0 °F 93% 29.72 in 7.0 mi SSW 5.8 mph - N/A   Clear
2:35 AM 24.8 °F 19.1 °F 23.0 °F 93% 29.73 in 6.0 mi SW 4.6 mph - N/A   Partly Cloudy
2:55 AM 24.8 °F 17.9 °F 23.0 °F 93% 29.72 in 10.0 mi SW 5.8 mph - 0.01 in   Clear
3:15 AM 21.2 °F 13.6 °F 21.2 °F 100% 29.71 in 10.0 mi SSW 5.8 mph - N/A   Clear
3:35 AM 21.2 °F 13.6 °F 21.2 °F 100% 29.71 in 3.0 mi SW 5.8 mph - N/A   Clear
3:55 AM 21.2 °F 14.9 °F 19.4 °F 93% 29.70 in 10.0 mi SSW 4.6 mph - N/A   Clear
4:35 AM 21.2 °F 14.9 °F 19.4 °F 93% 29.70 in 2.5 mi SSW 4.6 mph - N/A   Clear
4:55 AM 21.2 °F 16.4 °F 19.4 °F 93% 29.70 in 5.0 mi SW 3.5 mph - N/A   Mostly Cloudy
5:15 AM 21.2 °F 16.4 °F 19.4 °F 93% 29.70 in 7.0 mi SSW 3.5 mph - N/A   Mostly Cloudy
5:35 AM 19.4 °F 14.3 °F 17.6 °F 93% 29.71 in 5.0 mi SW 3.5 mph - N/A   Partly Cloudy
5:55 AM 21.2 °F 16.4 °F 19.4 °F 93% 29.71 in 9.0 mi SSW 3.5 mph - N/A   Mostly Cloudy
6:15 AM 19.4 °F 12.8 °F 19.4 °F 100% 29.71 in 10.0 mi SSW 4.6 mph - N/A   Mostly Cloudy
6:35 AM 19.4 °F 12.8 °F 17.6 °F 93% 29.72 in 10.0 mi SSW 4.6 mph - N/A   Partly Cloudy
6:55 AM 21.2 °F 16.4 °F 17.6 °F 86% 29.72 in 10.0 mi SSW 3.5 mph - N/A   Mostly Cloudy
7:15 AM 21.2 °F 14.9 °F 21.2 °F 100% 29.73 in 9.0 mi South 4.6 mph - N/A   Overcast
7:35 AM 21.2 °F 16.4 °F 21.2 °F 100% 29.74 in 10.0 mi SSW 3.5 mph - N/A   Mostly Cloudy
7:55 AM 21.2 °F 14.9 °F 19.4 °F 93% 29.75 in 10.0 mi SSW 4.6 mph - N/A   Scattered Clouds
8:15 AM 21.2 °F 14.9 °F 21.2 °F 100% 29.76 in 8.0 mi SSW 4.6 mph - N/A   Mostly Cloudy
8:35 AM 24.8 °F 19.1 °F 21.2 °F 86% 29.77 in 10.0 mi SSW 4.6 mph - N/A   Mostly Cloudy
8:55 AM 24.8 °F 17.9 °F 24.8 °F 100% 29.77 in 10.0 mi SW 5.8 mph - N/A   Overcast
9:35 AM 28.4 °F 20.4 °F 26.6 °F 93% 29.78 in 10.0 mi WSW 8.1 mph - N/A   Clear
9:55 AM 28.4 °F 21.2 °F 24.8 °F 86% 29.79 in 10.0 mi SW 6.9 mph - N/A   Clear
10:15 AM 30.2 °F 23.4 °F 24.8 °F 80% 29.79 in 10.0 mi SW 6.9 mph - N/A   Clear
10:35 AM 30.2 °F 21.9 °F 26.6 °F 86% 29.79 in 10.0 mi SW 9.2 mph - N/A   Clear
10:55 AM 33.8 °F 27.0 °F 26.6 °F 75% 29.78 in 10.0 mi SW 8.1 mph - N/A   Clear
11:15 AM 33.8 °F 27.7 °F 26.6 °F 75% 29.79 in 10.0 mi SSW 6.9 mph - N/A   Clear
11:35 AM 35.6 °F 28.0 °F 28.4 °F 75% 29.81 in 10.0 mi West 10.4 mph - N/A   Mostly Cloudy
11:55 AM 33.8 °F 25.8 °F 26.6 °F 75% 29.81 in 10.0 mi NW 10.4 mph - 0.02 in   Overcast
12:15 PM 33.8 °F 26.4 °F 28.4 °F 81% 29.83 in 9.0 mi WNW 9.2 mph 17.3 mph 0.02 in   Overcast
12:35 PM 33.8 °F 27.0 °F 26.6 °F 75% 29.83 in 10.0 mi West 8.1 mph 16.1 mph 0.02 in   Mostly Cloudy
12:55 PM 33.8 °F 23.9 °F 24.8 °F 70% 29.84 in 10.0 mi WNW 15.0 mph 18.4 mph 0.03 in   Partly Cloudy
1:15 PM 33.8 °F 22.8 °F 17.6 °F 52% 29.86 in 10.0 mi West 18.4 mph 27.6 mph 0.01 in   Partly Cloudy
1:35 PM 33.8 °F 25.3 °F 17.6 °F 52% 29.86 in 10.0 mi West 11.5 mph 24.2 mph 0.01 in   Clear
1:55 PM 33.8 °F 24.3 °F 17.6 °F 52% 29.87 in 10.0 mi West 13.8 mph 19.6 mph 0.01 in   Mostly Cloudy
2:15 PM 32.0 °F 24.8 °F 17.6 °F 55% 29.89 in 10.0 mi WNW 8.1 mph - N/A   Mostly Cloudy
2:35 PM 30.2 °F 18.9 °F 15.8 °F 55% 29.91 in 10.0 mi West 16.1 mph 25.3 mph N/A   Partly Cloudy
2:55 PM 30.2 °F 21.9 °F 10.4 °F 44% 29.91 in 10.0 mi West 9.2 mph 17.3 mph N/A   Clear
3:15 PM 30.2 °F 20.2 °F 12.2 °F 47% 29.92 in 10.0 mi NW 12.7 mph 19.6 mph N/A   Clear
3:35 PM 26.6 °F 14.7 °F 8.6 °F 47% 29.94 in 10.0 mi NW 15.0 mph 24.2 mph N/A   Clear
4:15 PM 23.0 °F 8.7 °F 3.2 °F 43% 29.98 in 10.0 mi WNW 18.4 mph 21.9 mph N/A   Clear
4:35 PM 21.2 °F 8.9 °F 1.4 °F 42% 29.98 in 10.0 mi NW 12.7 mph - N/A   Clear
4:55 PM 21.2 °F 9.5 °F -0.4 °F 39% 30.00 in 10.0 mi NNW 11.5 mph - N/A   Clear
5:15 PM 19.4 °F 6.0 °F -0.4 °F 42% 30.01 in 10.0 mi NNW 13.8 mph 20.7 mph N/A   Clear
5:35 PM 19.4 °F 7.2 °F -2.2 °F 39% 30.02 in 10.0 mi WNW 11.5 mph 19.6 mph N/A   Clear
5:55 PM 19.4 °F 6.0 °F -4.0 °F 36% 30.04 in 10.0 mi NW 13.8 mph 19.6 mph N/A   Clear
6:15 PM 17.6 °F 2.2 °F -5.8 °F 35% 30.05 in 10.0 mi NNW 17.3 mph 21.9 mph N/A   Clear
6:35 PM 17.6 °F 6.4 °F -4.0 °F 38% 30.06 in 10.0 mi NW 9.2 mph - N/A   Clear
6:55 PM 15.8 °F 4.2 °F -5.8 °F 38% 30.06 in 10.0 mi NNW 9.2 mph - N/A   Clear
7:15 PM 15.8 °F 2.7 °F -7.6 °F 35% 30.06 in 10.0 mi NNW 11.5 mph - N/A   Clear
7:35 PM 15.8 °F 7.2 °F -7.6 °F 35% 30.08 in 10.0 mi NNW 5.8 mph - N/A   Clear
7:55 PM 15.8 °F 5.1 °F -5.8 °F 38% 30.09 in 10.0 mi North 8.1 mph - N/A   Clear
8:15 PM 14.0 °F 3.9 °F -5.8 °F 41% 30.09 in 10.0 mi North 6.9 mph - N/A   Clear
8:35 PM 14.0 °F 2.9 °F -4.0 °F 45% 30.09 in 10.0 mi NNW 8.1 mph - N/A   Clear
8:55 PM 14.0 °F 5.1 °F -5.8 °F 41% 30.10 in 10.0 mi North 5.8 mph - N/A   Clear
9:15 PM 12.2 °F 0.7 °F -4.0 °F 48% 30.10 in 10.0 mi North 8.1 mph - N/A   Clear
9:55 PM 10.4 °F -4.1 °F -5.8 °F 48% 30.08 in 10.0 mi North 11.5 mph - N/A   Clear
10:15 PM 10.4 °F -4.1 °F -7.6 °F 44% 30.08 in 10.0 mi North 11.5 mph - N/A   Clear
10:35 PM 10.4 °F -3.3 °F -5.8 °F 48% 30.07 in 10.0 mi North 10.4 mph - N/A   Clear
10:55 PM 10.4 °F -3.3 °F -5.8 °F 48% 30.07 in 10.0 mi North 10.4 mph - N/A   Clear
11:15 PM 10.4 °F -1.5 °F -5.8 °F 48% 30.08 in 10.0 mi NNE 8.1 mph - N/A   Clear
11:35 PM 10.4 °F -3.3 °F -5.8 °F 48% 30.08 in 10.0 mi North 10.4 mph - N/A   Clear
11:55 PM 8.6 °F -3.7 °F -5.8 °F 52% 30.08 in 10.0 mi NNE 8.1 mph - N/A   Clear